Location: Newark
(45.2500°N, 7.5833°E)
Time: 02:03:59
(UTC+00:00)

First-Move - Pass Details

Date: 29 February 2020
Orbit: 576 x 669 km, 97.6° (Epoch: 06 April)

Event Time Altitude Azimuth Distance (km) Brightness Sun altitude
Rises 17:46:31 0° 205° (SSW) 2,927 ? -6.2°
Reaches altitude 10° 17:49:16 10° 224° (SW) 2,041 ? -6.6°
Maximum altitude 17:52:26 19° 269° (W) 1,552 ? -7.2°
Drops below altitude 10° 17:55:40 10° 315° (NW) 2,084 ? -7.8°
Sets 17:58:31 0° 333° (NNW) 3,013 ? -8.3°
